Regional Weather Roundup
Issued by NWS New Orleans/Baton Rouge, LA

Home | Current Version | Previous Version | Text Only | Print | Product List | Glossary On
Versions: 1 2 3 4 5 6 7 8 9 10 11 12 13 14 15 16 17 18 19 20 21 22 23 24 25 26 27 28 29 30 31 32 33 34 35 36 37 38 39 40 41 42 43 44 45 46 47 48 49 50
000
ASUS44 KLIX 010610
RWRLIX
NEW ORLEANS REGIONAL WEATHER ROUNDUP
NATIONAL WEATHER SERVICE NEW ORLEANS LA
100 AM CDT TUE SEP 01 2015

NOTE: "FAIR" INDICATES FEW OR NO CLOUDS BELOW 12,000 FEET WITH NO
      SIGNIFICANT WEATHER AND/OR OBSTRUCTIONS TO VISIBILITY.
      SKY/WX - SKY CONDITION AND SIGNIFICANT WEATHER.
      TMP - AIR TEMPERATURE.     DP    - DEWPOINT TEMPERATURE.
      RH  - RELATIVE HUMIDITY.   PRES  - PRESSURE.
      HI  - HEAT INDEX.          WCI   - WIND CHILL INDEX.

*  THESE STATIONS ARE NOT NWS OR FAA STATIONS AND ARE NOT UNDER
   NWS QUALITY CONTROL.

LAZ038-040-048-061>063-065>067-069-010700-
SOUTHEAST LOUISIANA

CITY           SKY/WX    TMP DP  RH WIND       PRES   REMARKS
N.O. AUDUBON   NOT AVBL
N.O. INTL ARPT   N/A     77  71  82 CALM      30.05R
6HR MIN TEMP:  76; 6HR MAX TEMP:  87;

N.O. LAKEFRONT   N/A     81  71  71 CALM      30.06R
6HR MIN TEMP:  79; 6HR MAX TEMP:  86;

N.O. DOWNTOWN*   N/A     82  72  69 CALM      30.06S
6HR MIN TEMP:  82; 6HR MAX TEMP:  90;

RESERVE*         N/A     76  73  91 CALM      30.05R
6HR MIN TEMP:  75; 6HR MAX TEMP:  84;

SLIDELL          N/A     72  70  93 CALM      30.05R
6HR MIN TEMP:  72; 6HR MAX TEMP:  86;

BATON ROUGE      N/A     75  72  90 CALM      30.05R
6HR MIN TEMP:  75; 6HR MAX TEMP:  83;

BOOTHVILLE       N/A     78  71  79 CALM      30.06R
6HR MIN TEMP:  78; 6HR MAX TEMP:  85;

BELLE CHASSE     N/A     71  69  93 CALM      30.05R FOG
6HR MIN TEMP:  71; 6HR MAX TEMP:  85;

BOGALUSA*      NOT AVBL
GALLIANO*        N/A     72  71  95 CALM      30.05R
6HR MIN TEMP:  72; 6HR MAX TEMP:  83;

NEW ROADS*       N/A     73  72  96 CALM      30.06R
6HR MIN TEMP:  73; 6HR MAX TEMP:  82;

GONZALES*        N/A     73  73 100 CALM      30.04S
6HR MIN TEMP:  73; 6HR MAX TEMP:  82;

HAMMOND*         N/A     73  68  83 CALM      30.07R
HOUMA*           N/A     74  73  99 CALM      30.05S
6HR MIN TEMP:  73; 6HR MAX TEMP:  78;

PORT FOURCHON* CLEAR     82  72  69 SE6       30.05S

$$

MSZ070-080>082-010700-
SOUTHERN MISSISSIPPI

CITY           SKY/WX    TMP DP  RH WIND       PRES   REMARKS
MCCOMB           N/A     74  71  91 CALM      30.07R
6HR MIN TEMP:  72; 6HR MAX TEMP:  86;

GULFPORT         N/A     73  70  90 CALM      30.04S
6HR MIN TEMP:  72; 6HR MAX TEMP:  85;

BILOXI           N/A     77  70  81 W3        30.04S
6HR MIN TEMP:  77; 6HR MAX TEMP:  83;

PASCAGOULA       N/A     70  69  97 CALM      30.05S
6HR MIN TEMP:  69; 6HR MAX TEMP:  83;


$$

COASTAL OBSERVATIONS
LAKE AND NEARSHORE STATIONS

STATION/POSITION TIME  TEMP    WIND        PRES    WAVE
                       AIR SEA DIR/SP/G            HT/PER
                 (UTC) (F)     (DEG/KT/KT) (MB)    (FT/S)
PASCAGOULA       0500          230/  5/  6 1016.9
WAVELAND YACHT   0500      84  220/  3/  3 1017.8
GRAND ISLE       0500      86  150/  4/  6 1017.5
SOUTHWEST PASS   0500      86  130/  4/  5 1017.6
NEW CANAL        0500      86  140/  2/  3 1016.7
SHELL BEACH      0500      86  150/  2/  2 1016.9

OFFSHORE STATIONS

STATION/POSITION TIME  TEMP    WIND        PRES    WAVE
                       AIR SEA DIR/SP/G            HT/PER
                 (UTC) (F)     (DEG/KT/KT) (MB)    (FT/S)
64 S DAUPHIN ISL 0550   83 86  120/  4/  6 1017.6    1/ 6

$$




USA.gov is the U.S. government's official web portal to all federal, state and local government web resources and services.